TimeCDT,TemperatureF,Dew PointF,Humidity,Sea Level PressureIn,VisibilityMPH,Wind Direction,Wind SpeedMPH,Gust SpeedMPH,PrecipitationIn,Events,Conditions,WindDirDegrees,DateUTC
12:56 AM,77.9,73.9,88,30.08,10.0,Calm,Calm,-,N/A,,Clear,0,2013-07-10 05:56:00
1:56 AM,79.0,74.8,87,30.07,10.0,Calm,Calm,-,N/A,,Mostly Cloudy,0,2013-07-10 06:56:00
2:56 AM,79.0,73.9,84,30.06,10.0,SW,4.6,-,N/A,,Clear,220,2013-07-10 07:56:00
3:56 AM,77.9,73.9,88,30.06,10.0,Calm,Calm,-,N/A,,Clear,0,2013-07-10 08:56:00
4:56 AM,75.9,73.9,94,30.06,10.0,Calm,Calm,-,N/A,,Clear,0,2013-07-10 09:56:00
5:56 AM,75.9,73.9,94,30.06,10.0,Calm,Calm,-,N/A,,Clear,0,2013-07-10 10:56:00
6:56 AM,77.9,74.8,90,30.06,10.0,SSE,4.6,-,N/A,,Clear,150,2013-07-10 11:56:00
7:56 AM,81.9,75.9,82,30.07,10.0,South,3.5,-,N/A,,Clear,190,2013-07-10 12:56:00
8:56 AM,84.9,73.9,69,30.07,10.0,West,9.2,-,N/A,,Clear,280,2013-07-10 13:56:00
9:56 AM,86.9,73.9,65,30.07,10.0,West,6.9,-,N/A,,Clear,260,2013-07-10 14:56:00
10:56 AM,90.0,75.9,63,30.04,10.0,WSW,5.8,-,N/A,,Clear,240,2013-07-10 15:56:00
11:56 AM,91.9,74.8,57,30.03,10.0,SW,6.9,-,N/A,,Partly Cloudy,230,2013-07-10 16:56:00
12:56 PM,92.8,74.8,56,30.03,10.0,West,12.7,-,N/A,,Partly Cloudy,260,2013-07-10 17:56:00
1:48 PM,91.4,73.4,55,29.99,10.0,West,11.5,16.1,N/A,Thunderstorm,Thunderstorm,270,2013-07-10 18:48:00
1:56 PM,91.9,74.8,57,30.00,10.0,WNW,6.9,16.1,N/A,Thunderstorm,Thunderstorm,300,2013-07-10 18:56:00
2:41 PM,91.4,73.4,55,29.94,10.0,WNW,9.2,-,N/A,,Partly Cloudy,290,2013-07-10 19:41:00
2:56 PM,90.9,74.8,59,29.94,10.0,WNW,8.1,-,N/A,,Partly Cloudy,290,2013-07-10 19:56:00
3:56 PM,90.9,75.9,61,29.94,10.0,SW,5.8,-,N/A,,Clear,220,2013-07-10 20:56:00
4:56 PM,90.9,75.9,61,29.91,10.0,SSW,6.9,-,N/A,,Clear,210,2013-07-10 21:56:00
5:47 PM,91.4,77.0,63,29.90,8.0,SW,6.9,-,N/A,Thunderstorm,Thunderstorm,230,2013-07-10 22:47:00
5:56 PM,90.0,77.0,65,29.90,10.0,SW,6.9,-,N/A,Thunderstorm,Thunderstorm,230,2013-07-10 22:56:00
6:24 PM,78.8,71.6,78,29.90,10.0,NE,18.4,31.1,N/A,Thunderstorm,Thunderstorm,50,2013-07-10 23:24:00
6:46 PM,75.2,73.4,94,29.96,1.8,NNE,26.5,33.4,0.16,Rain-Thunderstorm,Light Thunderstorms and Rain,30,2013-07-10 23:46:00
6:49 PM,75.2,73.4,94,29.95,1.0,NE,26.5,33.4,0.26,Rain-Thunderstorm,Light Thunderstorms and Rain,50,2013-07-10 23:49:00
6:56 PM,73.9,72.9,96,29.97,0.5,ENE,17.3,29.9,0.55,Fog-Rain-Thunderstorm,Light Thunderstorms and Rain,60,2013-07-10 23:56:00
7:01 PM,73.4,73.4,100,29.96,0.8,East,18.4,-,0.09,Rain-Thunderstorm,Heavy Thunderstorms and Rain,80,2013-07-11 00:01:00
7:09 PM,73.4,71.6,94,29.96,1.2,East,16.1,25.3,0.19,Rain-Thunderstorm,Thunderstorms and Rain,90,2013-07-11 00:09:00
7:13 PM,73.4,71.6,94,29.96,2.0,East,15.0,-,0.19,Rain-Thunderstorm,Thunderstorms and Rain,90,2013-07-11 00:13:00
7:19 PM,73.4,71.6,94,29.96,5.0,NNE,9.2,-,0.20,Rain-Thunderstorm,Light Thunderstorms and Rain,20,2013-07-11 00:19:00
7:24 PM,73.4,71.6,94,29.96,1.8,North,11.5,-,0.25,Rain-Thunderstorm,Heavy Thunderstorms and Rain,350,2013-07-11 00:24:00
7:29 PM,73.4,71.6,94,29.97,1.2,NNW,4.6,-,0.27,Rain-Thunderstorm,Heavy Thunderstorms and Rain,340,2013-07-11 00:29:00
7:34 PM,73.4,71.6,94,29.97,1.5,SSW,4.6,-,0.31,Rain-Thunderstorm,Heavy Thunderstorms and Rain,210,2013-07-11 00:34:00
7:46 PM,73.4,71.6,94,29.97,3.0,South,8.1,-,0.33,Rain-Thunderstorm,Light Thunderstorms and Rain,180,2013-07-11 00:46:00
7:56 PM,72.9,72.0,97,29.99,6.0,South,5.8,-,0.33,Rain,Rain,170,2013-07-11 00:56:00
7:59 PM,73.4,71.6,94,29.97,6.0,South,6.9,-,0.01,Rain,Rain,180,2013-07-11 00:59:00
8:56 PM,72.9,72.0,97,29.98,10.0,SSE,5.8,-,0.01,Rain,Rain,150,2013-07-11 01:56:00
9:16 PM,73.4,73.4,100,29.98,10.0,South,3.5,-,0.00,,Mostly Cloudy,190,2013-07-11 02:16:00
9:56 PM,73.9,72.9,96,30.01,10.0,SSE,3.5,-,0.00,,Mostly Cloudy,160,2013-07-11 02:56:00
10:03 PM,73.4,71.6,94,30.00,10.0,Calm,Calm,-,N/A,Thunderstorm,Thunderstorm,0,2013-07-11 03:03:00
10:56 PM,73.9,72.9,96,30.00,10.0,SSE,4.6,-,N/A,Thunderstorm,Mostly Cloudy,160,2013-07-11 03:56:00
11:56 PM,72.9,72.0,97,30.00,10.0,SSE,5.8,-,N/A,Thunderstorm,Clear,150,2013-07-11 04:56:00